Regional Weather Roundup
Issued by NWS

Home | Current Version | Previous Version | Text Only | Print | Product List | Glossary Off
Versions: 1 2 3 4 5 6 7 8 9 10 11 12 13 14 15 16 17 18 19 20 21 22 23 24 25 26 27 28 29 30 31 32 33 34 35 36 37 38 39 40 41 42 43 44 45 46 47 48 49 50

000
ASUS43 KBIS 281310
RWRND

NORTH DAKOTA REGIONAL WEATHER ROUNDUP
NATIONAL WEATHER SERVICE BISMARCK ND
700 AM CST SUN DEC 28 2014

NOTE: "FAIR" INDICATES FEW OR NO CLOUDS BELOW 12,000 FEET WITH NO
SIGNIFICANT WEATHER AND/OR OBSTRUCTIONS TO VISIBILITY.


NDZ001>003-009>011-017-281400-
NORTHWEST NORTH DAKOTA

CITY           SKY/WX    TMP DP  RH WIND       PRES   REMARKS
WILLISTON      CLOUDY    13   8  81 NE8       30.06R WCI   2
MINOT          CLOUDY    -5 -11  75 N9        30.14R WCI -22
MINOT AFB      CLOUDY    -8 -12  84 N8        30.16R WCI -24
$$

NDZ018>021-031>035-040>046-281400-
SOUTHWEST NORTH DAKOTA

CITY           SKY/WX    TMP DP  RH WIND       PRES   REMARKS
BISMARCK       LGT SNOW  14  10  84 E10       30.10R FOG     WCI   1
DICKINSON      CLOUDY    18  14  84 E12       29.95R WCI   5
GARRISON         N/A      7   3  84 NE7       30.09R WCI  -5
HETTINGER ARPT CLEAR      5   0  79 CALM      29.96R
$$

NDZ004>008-012>016-024-026-027-054-281400-
NORTHEAST NORTH DAKOTA

CITY           SKY/WX    TMP DP  RH WIND       PRES   REMARKS
GRAND FORKS    FAIR      -9 -13  83 N10       30.27R WCI -27
GRND FRKS AFB  CLEAR     -8 -12  82 N9        30.26R WCI -26
DEVILS LAKE    CLOUDY    -2  -9  71 E9        30.18R WCI -18
$$

NDZ022-023-025-028>030-036>039-047>053-281400-
SOUTHEAST NORTH DAKOTA

CITY           SKY/WX    TMP DP  RH WIND       PRES   REMARKS
FARGO          CLOUDY     2  -8  63 N14       30.22R WCI -16
JAMESTOWN      CLOUDY     6   1  80 NE13      30.14R WCI -10
$$




USA.gov is the U.S. government's official web portal to all federal, state and local government web resources and services.